This demonstration page uses our WeatherBlox Daily Observations layout. Learn more.

Left ArrowRight Arrow

40.97296, -117.73568

Hourly Observations for August 5, 2016

Temp ( °F °C ) Dew Point ( °F °C ) Humidity (%) Winds ( mph kmh ) Pressure ( in mb ) Visibility ( mi km ) Precip ( " mm )
12:56 am 00:56 Clear 66 18.9 23 -5 19 19 NNE 7 11 29.78 1008 10 16 0.00 0.00
1:56 am 01:56 Clear 65 18.3 27 -2.8 24 24 SSW 5 7 29.76 1008 10 16 0.00 0.00
2:56 am 02:56 Clear 61 16.1 28 -2.2 29 29 ENE 5 7 29.76 1008 10 16 0.00 0.00
3:56 am 03:56 Clear 64 17.8 23 -5 21 21 W 6 9 29.75 1007 10 16 0.00 0.00
4:56 am 04:56 Clear 57 13.9 26 -3.3 30 30 ESE 3 6 29.76 1008 10 16 0.00 0.00
5:56 am 05:56 Mostly Sunny 55 12.8 26 -3.3 33 33 S 3 6 29.78 1009 10 16 0.00 0.00
6:56 am 06:56 Sunny 59 15 28 -2.2 31 31 Calm 29.79 1009 10 16 0.00 0.00
7:56 am 07:56 Sunny 67 19.4 24 -4.4 20 20 SSW 5 7 29.79 1009 10 16 0.00 0.00
8:56 am 08:56 Sunny 74 23.3 22 -5.6 14 14 Calm 29.79 1009 10 16 0.00 0.00
9:56 am 09:56 Sunny 76 24.4 24 -4.4 14 14 Calm 29.80 1009 10 16 0.00 0.00
10:56 am 10:56 Sunny 83 28.3 21 -6.1 10 10 W 6 9 29.79 1009 10 16 0.00 0.00
11:56 am 11:56 Sunny 86 30 21 -6.1 9 9 VRB 3 6 29.79 1009 10 16 0.00 0.00
12:56 pm 12:56 Sunny 88 31.1 23 -5 9 9 SW 10 17 29.76 1008 10 16 0.00 0.00
1:56 pm 13:56 Mostly Sunny 89 31.7 24 -4.4 9 9 VRB 5 7 29.75 1007 10 16 0.00 0.00
2:56 pm 14:56 Sunny 92 33.3 25 -3.9 9 9 WNW 10 17 29.72 1007 10 16 0.00 0.00
3:56 pm 15:56 Sunny 93 33.9 23 -5 8 8 WNW 9 15 29.69 1006 10 16 0.00 0.00
4:56 pm 16:56 Sunny 93 33.9 17 -8.3 6 6 NW 9 15 29.69 1005 10 16 0.00 0.00
5:56 pm 17:56 Sunny 91 32.8 17 -8.3 6 6 WSW 6 9 29.69 1005 10 16 0.00 0.00
6:56 pm 18:56 Sunny 89 31.7 17 -8.3 7 7 W 12 19 29.69 1005 10 16 0.00 0.00
7:56 pm 19:56 Sunny 80 26.7 22 -5.6 11 11 W 7 11 29.70 1006 10 16 0.00 0.00
8:56 pm 20:56 Clear 75 23.9 20 -6.7 12 12 WSW 8 13 29.72 1007 10 16 0.00 0.00
9:56 pm 21:56 Clear 78 25.6 15 -9.4 9 9 WSW 14 22 29.74 1007 10 16 0.00 0.00
10:56 pm 22:56 Clear 77 25 11 -11.7 8 8 Calm 29.74 1007 10 16 0.00 0.00
11:56 pm 23:56 Clear 75 23.9 11 -11.7 8 8 SSW 8 13 29.75 1008 10 16 0.00 0.00

Powered by AerisWeather